Ponca City, OK

5:04 AM CDT on October 15, 2019 (GMT -0500)
Ponca City Municipal

Weather History for KPNC - June, 2019

Change the Weather History Date:

Friday, June 7, 2019

  Actual Average Record
Temperature  
Mean Temperature 76 °F -  
Max Temperature 88 °F 88 °F 99 °F (2011)
Min Temperature 64 °F 64 °F 52 °F (1955)
Cooling Degree Days 11    
Growing Degree Days 26 (Base 50)    
Moisture  
Dew Point 65 °F    
Average Humidity 74    
Maximum Humidity 97    
Minimum Humidity 45    
Precipitation  
Precipitation 0.00 in - - ()
Sea Level Pressure  
Sea Level Pressure 29.79 in    
Wind  
Wind Speed 5 mph (NNE)    
Max Wind Speed 14 mph    
Max Gust Speed -    
Visibility 10 miles    
Events      
Averages and records for this station are not official NWS values.
T = Trace of Precipitation, MM = Missing Value Source: NWS Daily Summary

Daily Weather History Graph

Daily Weather History Graph

Search for Another Location

Airport or City:

Astronomy

Jun. 07, 2019 Rise Set
Actual Time 6:09 AM CDT 8:45 PM CDT
Civil Twilight 5:39 AM CDT 9:15 PM CDT
Nautical Twilight 5:01 AM CDT 9:53 PM CDT
Astronomical Twilight 4:19 AM CDT 10:35 PM CDT
Moon 10:26 AM CDT (6/7) 12:04 AM CDT (6/7)
Length of Visible Light 15h 36m
Length of Day
14h 35m
Waxing Crescent, 22% of the Moon is Illuminated
Jun 7
Waxing Crescent
Jun 10
First Quarter
Jun 17
Full
Jun 25
Last Quarter
Jul 2
New

Hourly Weather History & Observations

Time (CDT) Temp. Heat Index Dew Point Humidity Pressure Visibility Wind Dir Wind Speed Gust Speed Precip Events Conditions
12:53 AM 66.0 °F - 64.0 °F 93% 29.78 in 10.0 mi NW 3.5 mph - N/A   Clear
1:13 AM 66.0 °F - 64.0 °F 93% 29.81 in 10.0 mi Calm Calm - N/A   Mostly Cloudy
1:20 AM 66.0 °F - 63.0 °F 90% 29.81 in 10.0 mi Calm Calm - N/A   Scattered Clouds
1:53 AM 64.9 °F - 64.0 °F 97% 29.79 in 10.0 mi SSE 3.5 mph - N/A   Mostly Cloudy
2:53 AM 64.9 °F - 64.0 °F 97% 29.79 in 9.0 mi Calm Calm - N/A   Clear
3:53 AM 64.9 °F - 64.0 °F 97% 29.78 in 10.0 mi NNW 3.5 mph - N/A   Clear
4:34 AM 66.0 °F - 64.0 °F 93% 29.81 in 10.0 mi Calm Calm - N/A   Partly Cloudy
4:53 AM 64.9 °F - 64.0 °F 97% 29.79 in 10.0 mi Calm Calm - N/A   Partly Cloudy
5:53 AM 64.0 °F - 62.1 °F 93% 29.80 in 10.0 mi NNE 6.9 mph - N/A   Clear
6:53 AM 66.0 °F - 64.0 °F 93% 29.80 in 10.0 mi North 6.9 mph - N/A   Clear
7:53 AM 70.0 °F - 66.0 °F 87% 29.81 in 10.0 mi NNE 6.9 mph - N/A   Clear
8:53 AM 75.0 °F - 69.1 °F 82% 29.80 in 10.0 mi NNE 10.4 mph - N/A   Clear
9:53 AM 79.0 °F - 68.0 °F 69% 29.81 in 10.0 mi North 11.5 mph - N/A   Clear
10:53 AM 80.1 °F 82.3 °F 66.9 °F 64% 29.81 in 10.0 mi NE 12.7 mph - N/A   Mostly Cloudy
11:53 AM 82.9 °F 85.4 °F 66.9 °F 58% 29.81 in 10.0 mi ENE 12.7 mph - N/A   Partly Cloudy
12:53 PM 84.0 °F 86.5 °F 66.9 °F 56% 29.80 in 10.0 mi North 11.5 mph - N/A   Mostly Cloudy
1:53 PM 84.9 °F 87.1 °F 66.0 °F 53% 29.79 in 10.0 mi NE 10.4 mph - N/A   Scattered Clouds
2:53 PM 86.0 °F 88.2 °F 66.0 °F 51% 29.78 in 10.0 mi North 12.7 mph - N/A   Scattered Clouds
3:53 PM 87.1 °F 89.2 °F 66.0 °F 49% 29.77 in 10.0 mi NE 9.2 mph - N/A   Scattered Clouds
4:53 PM 88.0 °F 89.3 °F 64.0 °F 45% 29.76 in 10.0 mi NE 10.4 mph - N/A   Partly Cloudy
5:53 PM 87.1 °F 88.3 °F 64.0 °F 46% 29.75 in 10.0 mi NNE 13.8 mph - N/A   Clear
6:53 PM 87.1 °F 88.9 °F 64.9 °F 48% 29.75 in 10.0 mi North 8.1 mph - N/A   Clear
7:53 PM 84.0 °F 86.3 °F 66.0 °F 55% 29.76 in 10.0 mi NE 6.9 mph - N/A   Clear
8:53 PM 80.1 °F 82.1 °F 66.0 °F 62% 29.78 in 10.0 mi ENE 3.5 mph - N/A   Clear
9:53 PM 73.9 °F - 66.9 °F 79% 29.79 in 10.0 mi NNE 4.6 mph - N/A   Clear
10:53 PM 72.0 °F - 66.9 °F 84% 29.80 in 10.0 mi ENE 4.6 mph - N/A   Clear
11:53 PM 73.9 °F - 66.0 °F 76% 29.81 in 10.0 mi ESE 9.2 mph - N/A   Clear